KD8ZLZ-13 Weather Reports


Display with metric or nautical units.
time (UTC)temp
F
wind
direction
speed
MPH
gust
MPH
rain 1hr
in
rain 24hr
in
rain mn
in
humidity
%
barometer
mb
20260508210045 65 212 4.0 9.0 0.00 0.00 0.00 41 1008.8
20260508205045 68 226 5.0 11.0 0.00 0.00 0.00 38 1008.8
20260508204045 68 194 3.0 14.0 0.00 0.00 0.00 37 1008.8
20260508203045 66 210 3.0 8.0 0.00 0.00 0.00 40 1009.2
20260508202045 65 220 3.0 7.0 0.00 0.00 0.00 40 1009.5
20260508201045 66 224 6.0 10.0 0.00 0.00 0.00 40 1009.5
20260508200045 65 208 3.0 9.0 0.00 0.00 0.00 42 1009.5
20260508195045 63 255 3.0 6.0 0.00 0.00 0.00 44 1009.8
20260508194045 64 218 4.0 10.0 0.00 0.00 0.00 43 1009.8
20260508193045 65 181 2.0 6.0 0.00 0.00 0.00 45 1010.2
20260508192045 63 217 2.0 9.0 0.00 0.00 0.00 47 1010.5
20260508191046 63 217 4.0 8.0 0.00 0.00 0.00 44 1010.5
20260508190045 63 224 3.0 6.0 0.00 0.00 0.00 44 1010.5
20260508185045 65 201 3.0 8.0 0.00 0.00 0.00 42 1010.5
20260508184045 66 190 3.0 7.0 0.00 0.00 0.00 42 1010.5
20260508183045 64 207 3.0 5.0 0.00 0.00 0.00 44 1010.9
20260508182045 63 171 2.0 8.0 0.00 0.00 0.00 43 1010.9
20260508181046 61 222 4.0 9.0 0.00 0.00 0.00 45 1011.2
20260508180045 62 260 4.0 8.0 0.00 0.00 0.00 43 1011.2
20260508175045 61 234 4.0 7.0 0.00 0.00 0.00 45 1011.5
20260508174045 61 224 5.0 10.0 0.00 0.00 0.00 45 1011.5
20260508173045 62 218 4.0 11.0 0.00 0.00 0.00 44 1011.9
20260508172045 61 207 3.0 10.0 0.00 0.00 0.00 44 1011.9
20260508171045 63 176 2.0 5.0 0.00 0.00 0.00 44 1012.2
20260508170045 60 205 4.0 9.0 0.00 0.00 0.00 45 1012.2
20260508165045 60 257 3.0 8.0 0.00 0.00 0.00 44 1012.2
20260508164045 60 224 4.0 9.0 0.00 0.00 0.00 42 1012.6
20260508163045 60 215 5.0 10.0 0.00 0.00 0.00 41 1012.6
20260508162045 61 215 2.0 6.0 0.00 0.00 0.00 42 1012.6
20260508161045 59 220 2.0 6.0 0.00 0.00 0.00 44 1012.6
20260508160045 61 186 2.0 5.0 0.00 0.00 0.00 45 1012.6
20260508155045 60 148 1.0 4.0 0.00 0.00 0.00 47 1012.6
20260508154045 58 172 1.0 4.0 0.00 0.00 0.00 46 1012.9
20260508153045 58 194 1.0 3.0 0.00 0.00 0.00 48 1012.9
20260508152045 57 208 1.0 2.0 0.00 0.00 0.00 51 1012.9
20260508151045 56 281 3.0 5.0 0.00 0.00 0.00 51 1012.9
20260508150045 57 193 1.0 3.0 0.00 0.00 0.00 51 1013.2
20260508145045 57 98 1.0 3.0 0.00 0.00 0.00 53 1013.2
20260508144045 55 201 2.0 4.0 0.00 0.00 0.00 57 1013.2
20260508143045 56 34 1.0 4.0 0.00 0.00 0.00 58 1013.2
20260508142045 54 137 1.0 2.0 0.00 0.00 0.00 59 1013.6
20260508141045 56 134 1.0 3.0 0.00 0.00 0.00 59 1013.6
20260508140045 54 162 1.0 3.0 0.00 0.00 0.00 61 1013.6
20260508135045 52 34 1.0 4.0 0.00 0.00 0.00 65 1013.6
20260508134045 52 169 0.0 2.0 0.00 0.00 0.00 66 1013.6
20260508133045 51 351 1.0 3.0 0.00 0.00 0.00 67 1013.6
20260508132045 51 236 2.0 4.0 0.00 0.00 0.00 68 1013.6
20260508131045 51 147 0.0 1.0 0.00 0.00 0.00 69 1013.6
20260508130045 50 148 1.0 2.0 0.00 0.00 0.00 71 1013.2
20260508125045 49 199 1.0 2.0 0.00 0.00 0.00 75 1013.2
20260508124045 48 216 0.0 3.0 0.00 0.00 0.00 76 1013.2
20260508123045 47 189 1.0 2.0 0.00 0.00 0.00 78 1013.2
20260508122045 46 202 1.0 2.0 0.00 0.00 0.00 80 1013.2
20260508121045 45 195 1.0 2.0 0.00 0.00 0.00 82 1013.2
20260508120045 45 184 1.0 2.0 0.00 0.00 0.00 82 1012.9
20260508115045 44 199 1.0 3.0 0.00 0.00 0.00 84 1012.9
20260508114045 42 181 0.0 1.0 0.00 0.00 0.00 89 1012.6
20260508113045 41 176 0.0 0.0 0.00 0.00 0.00 90 1012.6
20260508112045 40 171 0.0 0.0 0.00 0.00 0.00 92 1012.6
20260508111045 40 168 0.0 0.0 0.00 0.00 0.00 92 1012.6
20260508110045 40 167 0.0 0.0 0.00 0.00 0.00 91 1012.6
20260508105045 40 164 0.0 0.0 0.00 0.00 0.00 91 1012.6
20260508104045 40 145 0.0 0.0 0.00 0.00 0.00 91 1012.6
20260508103045 40 130 0.0 0.0 0.00 0.00 0.00 90 1012.6
20260508102045 41 181 0.0 1.0 0.00 0.00 0.00 90 1012.6
20260508101045 41 177 0.0 1.0 0.00 0.00 0.00 90 1012.2
20260508100045 41 190 0.0 1.0 0.00 0.00 0.00 90 1012.2
20260508095045 41 182 0.0 1.0 0.00 0.00 0.00 90 1012.2
20260508094045 41 183 0.0 1.0 0.00 0.00 0.00 89 1012.2
20260508093045 41 186 0.0 1.0 0.00 0.00 0.00 89 1012.2
20260508092045 41 176 0.0 0.0 0.00 0.00 0.00 87 1012.2
20260508091045 42 180 0.0 1.0 0.00 0.00 0.00 86 1012.2
20260508090044 42 183 0.0 1.0 0.00 0.00 0.00 84 1012.2
20260508085045 43 185 1.0 1.0 0.00 0.00 0.00 83 1012.6
20260508084045 43 193 1.0 2.0 0.00 0.00 0.00 82 1012.6
20260508083045 44 183 0.0 1.0 0.00 0.00 0.00 81 1012.6
20260508082044 44 190 1.0 2.0 0.00 0.00 0.00 80 1012.6
20260508081045 44 186 1.0 3.0 0.00 0.00 0.00 79 1012.6
20260508080044 44 187 1.0 2.0 0.00 0.00 0.00 78 1012.6
20260508075044 44 192 0.0 2.0 0.00 0.00 0.00 79 1012.9
20260508074044 44 205 2.0 3.0 0.00 0.00 0.00 78 1012.6
20260508073044 44 193 1.0 2.0 0.00 0.00 0.00 79 1012.6
20260508072044 44 200 1.0 2.0 0.00 0.00 0.00 80 1012.6
20260508071044 44 204 1.0 3.0 0.00 0.00 0.00 79 1012.9
20260508070044 44 199 1.0 2.0 0.00 0.00 0.00 79 1012.9
20260508065044 43 191 0.0 2.0 0.00 0.00 0.00 80 1012.9
20260508064044 44 193 0.0 2.0 0.00 0.00 0.00 79 1012.9
20260508063044 44 208 1.0 2.0 0.00 0.00 0.00 78 1012.6
20260508062044 44 207 1.0 2.0 0.00 0.00 0.00 76 1012.9
20260508061044 45 202 2.0 4.0 0.00 0.00 0.00 74 1012.9
20260508060044 45 189 1.0 3.0 0.00 0.00 0.00 76 1012.9
20260508055044 45 200 1.0 2.0 0.00 0.00 0.00 76 1012.9
20260508054044 45 194 1.0 2.0 0.00 0.00 0.00 74 1012.9
20260508053045 45 197 1.0 2.0 0.00 0.00 0.00 75 1012.9
20260508052044 45 192 0.0 1.0 0.00 0.00 0.00 75 1012.9
20260508051044 45 202 1.0 2.0 0.00 0.00 0.00 73 1012.9
20260508050044 46 196 1.0 2.0 0.00 0.00 0.00 73 1012.9
20260508045044 47 203 2.0 4.0 0.00 0.00 0.00 69 1012.9
20260508044044 47 195 2.0 4.0 0.00 0.00 0.00 68 1012.9
20260508043044 47 187 2.0 4.0 0.00 0.00 0.00 67 1012.9
20260508042044 48 197 2.0 4.0 0.00 0.00 0.00 66 1012.9
20260508041044 48 202 2.0 4.0 0.00 0.00 0.00 65 1012.9
20260508040044 49 204 3.0 5.0 0.00 0.00 0.00 64 1012.9
20260508035044 49 216 4.0 7.0 0.00 0.00 0.00 63 1013.2
20260508034044 49 206 3.0 5.0 0.00 0.00 0.00 64 1013.2
20260508033044 49 210 2.0 4.0 0.00 0.00 0.00 63 1013.6
20260508032044 50 205 2.0 4.0 0.00 0.00 0.00 63 1013.2
20260508031044 50 203 2.0 4.0 0.00 0.00 0.00 61 1013.2
20260508030044 50 216 3.0 4.0 0.00 0.00 0.00 61 1013.2
20260508025044 50 213 3.0 5.0 0.00 0.00 0.00 60 1013.2
20260508024044 51 228 3.0 6.0 0.00 0.00 0.00 59 1013.2
20260508023044 51 235 4.0 8.0 0.00 0.00 0.00 57 1013.2
20260508022044 52 218 5.0 9.0 0.00 0.00 0.00 52 1013.2
20260508021044 52 208 2.0 4.0 0.00 0.00 0.00 51 1013.2
20260508020044 52 205 2.0 4.0 0.00 0.00 0.00 50 1012.9
20260508015044 52 220 2.0 4.0 0.00 0.00 0.00 51 1012.6
20260508014044 52 242 4.0 9.0 0.00 0.00 0.00 51 1012.6
20260508013044 51 205 2.0 3.0 0.00 0.00 0.00 53 1012.6
20260508012044 51 180 0.0 0.0 0.00 0.00 0.00 56 1012.2
20260508011044 51 182 0.0 1.0 0.00 0.00 0.00 51 1012.2
20260508010044 51 186 0.0 1.0 0.00 0.00 0.00 46 1012.2
20260508005044 51 179 0.0 0.0 0.00 0.00 0.00 50 1012.2
20260508004044 52 184 0.0 0.0 0.00 0.00 0.00 47 1012.2
20260508003044 53 212 0.0 2.0 0.00 0.00 0.00 44 1012.2
20260508001044 55 246 3.0 6.0 0.00 0.00 0.00 39 1012.2
20260508000044 55 262 2.0 4.0 0.00 0.00 0.00 40 1012.2
20260507235044 55 253 4.0 7.0 0.00 0.00 0.00 38 1012.2
20260507234044 57 267 4.0 8.0 0.00 0.00 0.00 37 1012.6
20260507233044 56 257 4.0 7.0 0.00 0.00 0.00 38 1012.2
20260507232044 56 260 5.0 13.0 0.00 0.00 0.00 38 1012.6
20260507231044 56 255 4.0 7.0 0.00 0.00 0.00 38 1012.6
20260507230044 56 269 3.0 7.0 0.00 0.00 0.00 37 1012.6
20260507225044 57 278 4.0 8.0 0.00 0.00 0.00 36 1012.6
20260507224044 58 263 5.0 9.0 0.00 0.00 0.00 36 1012.6
20260507223044 56 250 4.0 8.0 0.00 0.00 0.00 36 1012.6
20260507222044 56 278 5.0 12.0 0.00 0.00 0.00 37 1012.6
20260507221044 59 269 6.0 10.0 0.00 0.00 0.00 34 1012.6
20260507220044 59 269 6.0 15.0 0.00 0.00 0.00 34 1012.6
20260507215044 59 280 6.0 14.0 0.00 0.00 0.00 35 1012.6
20260507214044 57 263 7.0 12.0 0.00 0.00 0.00 34 1012.6
20260507213044 57 263 7.0 15.0 0.00 0.00 0.00 36 1012.6
20260507212044 59 262 7.0 15.0 0.00 0.00 0.00 34 1012.6
20260507211044 58 248 7.0 14.0 0.00 0.00 0.00 35 1012.6